SM5FGQ-2 Weather Reports


Display with metric or nautical units.
time (UTC)temp
F
wind
direction
speed
MPH
gust
MPH
rain 1hr
in
rain 24hr
in
rain mn
in
humidity
%
barometer
mb
20260504033023 43 180 0.0 2.0 0.14 0.20 0.20 93 1001.7
20260504030136 43 180 0.0 2.0 0.11 0.14 0.14 92 1001.8
20260504023106 43 180 0.0 2.0 0.05 0.05 0.05 91 1002.1
20260504020136 43 180 0.0 2.0 0.02 0.02 0.02 91 1002.5
20260504013046 43 180 0.0 3.0 0.00 0.00 0.00 90 1003.2
20260504010056 43 154 0.0 3.0 0.00 0.00 0.00 90 1002.9
20260504003028 43 135 0.0 2.0 0.00 0.00 0.00 90 1003.2
20260504000018 42 157 0.0 1.0 0.00 0.00 0.00 90 1003.7
20260503233108 42 157 0.0 1.0 0.00 0.00 0.00 90 1003.7
20260503230118 42 157 0.0 2.0 0.00 0.00 0.00 90 1004.0
20260503223048 42 153 0.0 2.0 0.00 0.00 0.00 89 1004.3
20260503220038 42 157 0.0 1.0 0.00 0.00 0.00 88 1004.5
20260503213029 42 157 0.0 1.0 0.00 0.00 0.00 86 1004.8
20260503210021 42 157 0.0 1.0 0.00 0.00 0.00 84 1004.9
20260503203141 43 157 0.0 1.0 0.00 0.00 0.00 83 1005.1
20260503200121 44 157 0.0 1.0 0.00 0.00 0.00 82 1005.4
20260503193049 45 157 0.0 1.0 0.00 0.00 0.00 75 1005.3
20260503190040 47 157 0.0 3.0 0.00 0.00 0.00 72 1005.2
20260503183111 49 151 0.0 2.0 0.00 0.00 0.00 70 1005.1
20260503180019 52 109 1.0 3.0 0.00 0.00 0.00 67 1005.0
20260503173109 53 104 1.0 4.0 0.00 0.00 0.00 66 1004.9
20260503070103 61 270 0.0 2.0 0.00 0.00 0.00 58 1004.6
20260503053112 57 284 0.0 2.0 0.00 0.00 0.00 65 1004.7
20260503043052 56 312 0.0 1.0 0.00 0.00 0.00 62 1004.6
20260503040042 55 282 0.0 2.0 0.00 0.00 0.00 62 1004.4